TimeCST,TemperatureF,Dew PointF,Humidity,Sea Level PressureIn,VisibilityMPH,Wind Direction,Wind SpeedMPH,Gust SpeedMPH,PrecipitationIn,Events,Conditions,WindDirDegrees,DateUTC
12:00 AM,74,72,91,30.05,12,Calm,Calm,,,,Mostly Cloudy,,2012-11-15 06:00:00
3:00 AM,73,72,96,30.01,12,Calm,Calm,,,Rain,Light Rain Showers,,2012-11-15 09:00:00
5:00 AM,71.6,71.6,100,30.01,6.2,NNW,6.9,-,N/A,,Mostly Cloudy,340,2012-11-15 11:00:00
6:00 AM,72,71,94,30.02,12,NW,6.9,,,,Partly Cloudy,320,2012-11-15 12:00:00
6:00 AM,71.6,71.6,100,30.01,6.2,NW,6.9,-,N/A,,Mostly Cloudy,320,2012-11-15 12:00:00
7:00 AM,71.6,71.6,100,30.04,6.2,WNW,3.5,-,N/A,,Mostly Cloudy,290,2012-11-15 13:00:00
8:00 AM,73.4,71.6,94,30.04,6.2,WNW,5.8,-,N/A,,Mostly Cloudy,300,2012-11-15 14:00:00
9:00 AM,77,72,79,30.07,12,North,6.9,,,,Mostly Cloudy,350,2012-11-15 15:00:00
9:00 AM,77.0,71.6,83,30.06,6.2,North,6.9,-,N/A,,Mostly Cloudy,350,2012-11-15 15:00:00
10:00 AM,80.6,73.4,79,30.07,6.2,West,4.6,-,N/A,,Scattered Clouds,270,2012-11-15 16:00:00
11:00 AM,82.4,73.4,74,30.05,6.2,North,8.1,-,N/A,,Scattered Clouds,360,2012-11-15 17:00:00
11:15 AM,-9999,-9999,N/A,30.05,3.7,North,10.4,-,N/A,Rain,Heavy Rain Showers,360,2012-11-15 17:15:00
11:40 AM,-9999,-9999,N/A,30.04,6.2,Calm,Calm,-,N/A,Rain,Light Rain Showers,0,2012-11-15 17:40:00
12:00 PM,78,74,82,30.05,9,Calm,Calm,,,Rain,Heavy Rain Showers,,2012-11-15 18:00:00
12:00 PM,78.8,73.4,83,30.04,6.2,Calm,Calm,-,N/A,Rain,Heavy Rain Showers,0,2012-11-15 18:00:00
1:00 PM,80.6,73.4,79,30.01,6.2,NNE,4.6,-,N/A,,Scattered Clouds,20,2012-11-15 19:00:00
2:00 PM,78.8,71.6,78,30.00,6.2,NNE,4.6,-,N/A,,Mostly Cloudy,20,2012-11-15 20:00:00
3:00 PM,82,71,62,29.99,12,ENE,6.9,,,,Partly Cloudy,60,2012-11-15 21:00:00
3:00 PM,82.4,71.6,70,29.98,6.2,ENE,6.9,-,N/A,,Mostly Cloudy,60,2012-11-15 21:00:00
4:00 PM,78.8,71.6,78,29.98,6.2,NNE,11.5,-,N/A,,Mostly Cloudy,30,2012-11-15 22:00:00
5:00 PM,78.8,73.4,83,30.00,6.2,NNW,3.5,-,N/A,,Mostly Cloudy,340,2012-11-15 23:00:00
6:00 PM,80,71,67,30.02,12,NNE,5.8,,,,Partly Cloudy,30,2012-11-16 00:00:00
6:00 PM,80.6,71.6,74,30.02,6.2,NNE,5.8,-,N/A,,Mostly Cloudy,30,2012-11-16 00:00:00
7:00 PM,78.8,69.8,74,30.03,6.2,NE,6.9,-,N/A,,Mostly Cloudy,50,2012-11-16 01:00:00
8:00 PM,78.8,71.6,78,30.04,6.2,NNE,4.6,-,N/A,,Scattered Clouds,20,2012-11-16 02:00:00
9:00 PM,79,70,68,30.06,12,NNE,4.6,,,,Scattered Clouds,30,2012-11-16 03:00:00
9:00 PM,78.8,69.8,74,30.05,6.2,NNE,4.6,-,N/A,,Partly Cloudy,30,2012-11-16 03:00:00
10:00 PM,73.4,71.6,94,30.04,-9999.0,WNW,3.5,-,N/A,,Clear,290,2012-11-16 04:00:00